Location: Arpaise
(41.0333°N, 14.7333°E)
Time: 21:22:54
(UTC+00:00)

Cosmos 846 Rocket - Pass Details

Date: 25 January 2021
Orbit: 948 x 991 km, 82.9° (Epoch: 06 March)

Event Time Altitude Azimuth Distance (km) Brightness Sun altitude
Rises 05:14:01 0° 351° (N) 3,630 8.3 -12.2°
Reaches altitude 10° 05:16:31 10° 351° (N) 2,680 7.6 -11.7°
Maximum altitude 05:22:38 83° 265° (W) 961 5.4 -10.6°
Drops below altitude 10° 05:28:44 10° 178° (S) 2,668 8.1 -9.5°
Sets 05:31:13 0° 177° (S) 3,613 8.8 -9.0°
